Hourly Weather Roundup
Issued by NWS

Current Version | Previous Version | Text Only | Print | Product List | Glossary On
Versions: 1 2 3 4 5 6 7 8 9 10 11 12 13 14 15 16 17 18 19 20 21 22 23 24 25 26 27 28 29 30 31 32 33 34 35 36 37 38 39 40 41 42 43 44 45 46 47 48 49 50
283
NZUS43 KILX 291310
HWRCRS

CRS HOURLY WEATHER ROUNDUP
NATIONAL WEATHER SERVICE, LINCOLN IL
800 AM CDT THU SEP 29 2016


CITY           SKY/WX    TMP DP  RH WIND       PRES   REMARKS
CHAMPAIGN      CLOUDY    59  55  87 N13       30.10R
LAWRENCEVILLE  CLOUDY    56  54  93 NW5       30.04R
PEORIA         MOSUNNY   57  54  89 N10G18    30.17R
SPRINGFIELD    CLOUDY    57  52  83 N10       30.15R
$$


CITY           SKY/WX    TMP DP  RH WIND       PRES   REMARKS
BLOOMINGTON    CLOUDY    57  55  93 N16       30.13R
DECATUR        CLOUDY    60  54  80 N14       30.10R
EFFINGHAM      CLOUDY    56  56  99 N5        30.08S
FLORA          CLOUDY    58  53  86 NW7       30.07R
GALESBURG      CLOUDY    54  51  89 N15G21    30.22R
JACKSONVILLE   CLOUDY    55  51  86 N15       30.17S
LACON          PTSUNNY   58  53  83 N9G21     30.16R
LINCOLN        HVY RAIN  57  56  95 N9        30.14R
LITCHFIELD     CLOUDY    54  49  85 N15G22    30.13R

CITY           SKY/WX    TMP DP  RH WIND       PRES   REMARKS
MACOMB         CLOUDY    54  51  92 N13       30.24R
MATTOON        CLOUDY    56  54  93 N7        30.06R
MOLINE         CLOUDY    55  50  83 N8G17     30.25R
OLNEY          CLOUDY    55  55 100 NW6       30.06R
PARIS          CLOUDY    56  55  99 CALM      30.07R
PONTIAC        RAIN      58  58 100 N9        30.14R
QUINCY         CLOUDY    53  50  89 N12       30.23R
RANTOUL        CLOUDY    60  57  92 NE9       30.10R
ROBINSON       CLOUDY    55  54  97 N7        30.06R
TAYLORVILLE    CLOUDY    55  52  89 N17       30.12R
TERRE HAUTE    CLOUDY    56  54  93 N6        30.06R
$$


CITY           SKY/WX    TMP DP  RH WIND       PRES   REMARKS
BURLINGTON     CLOUDY    52  51  97 N12       30.25R
CHICAGO        CLOUDY    62  56  80 N20G25    30.14R
DES MOINES     PTCLDY    52  49  89 N7        30.37R
EVANSVILLE     CLOUDY    54  51  90 W6        30.05R
INDIANAPOLIS   CLOUDY    56  51  84 N7        30.05R
KANSAS CITY    CLEAR     49  46  90 NW6       30.35R
MILWAUKEE      MOSUNNY   60  56  86 N20G28    30.22R
ST LOUIS       MOSUNNY   56  49  77 NW9       30.18R
$$





USA.gov is the U.S. government's official web portal to all federal, state and local government web resources and services.